Weather in Shambalyg

Russia / Tyva Republic     51°14′21″N   95°05′15″E
temp.,
°C
wind,
m/s
gust,
m/s
humid.,
%
clouds,
%
prec.,
mm/h
press.,
hPa
HPBL,
m
5 march, fri
fri501:00−16ese22900 0.0 103420
04:00−17ese22830 0.0 103420
07:00−18e22818 0.0 103320
10:00−14e22793 0.0 103077
13:00−9ene127435 0.0 1028184
16:00−7nnw1286100 0.0 1025116
19:00−13w2292100 0.0 102821
22:00−14w1187100 0.0 103121
6 march, sat
sat601:00−15nne118399 0.0 103520
04:00−16e128065 0.0 103620
07:00−16e228033 0.0 103720
10:00−11e118236 0.0 103463
13:00−7nne128065 0.0 1030205
16:00−7nw118981 0.0 1027109
19:00−14n119843 0.0 102821
22:00−14e009615 0.0 102821
7 march, sun
sun701:00−15e009222 0.0 102821
04:00−15e018759 0.0 102720
07:00−17ene018862 0.0 102920
10:00−12n118583 0.0 102747
13:00−8nnw228292 0.0 1026190
16:00−8nw228999 0.0 1025110
19:00−11nw118999 0.0 102721
22:00−12nw1187100 0.0 102921
8 march, mon
mon801:00−15se009164 0.0 103121
04:00−15ese118744 0.0 103121
07:00−16ese118947 0.0 103220
10:00−10ene118519 0.0 103065
13:00−7n12849 0.0 1027187
16:00−6nw119214 0.0 102592
19:00−12nnw119810 0.0 102621
22:00−14n019912 0.0 102721
9 march, tue
tue901:00−14ne019919 0.0 102721
04:00−15nw119869 0.0 102720
07:00−12nnw119278 0.0 103021
10:00−10wsw0088100 0.0 103169
13:00−6nnw218182 0.0 1029220
16:00−6nw11915 0.0 102899
19:00−12nne11939 0.0 103021
22:00−12ne11880 0.0 103121